Regional Weather Roundup
Issued by NWS

Home | Current Version | Previous Version | Text Only | Print | Product List | Glossary On
Versions: 1 2 3 4 5 6 7 8 9 10 11 12 13 14 15 16 17 18 19 20 21 22 23 24 25 26 27 28 29 30 31 32 33 34 35 36 37 38 39 40 41 42 43 44 45 46 47 48 49 50
318
ASUS44 KLIX 190805
RWRLA
LOUISIANA WEATHER ROUNDUP
NATIONAL WEATHER SERVICE NEW ORLEANS LA
300 AM CDT SAT APR 19 2014

NOTE: "FAIR" INDICATES FEW OR NO CLOUDS BELOW 12,000 FEET WITH NO
      SIGNIFICANT WEATHER AND/OR OBSTRUCTIONS TO VISIBILITY.
      SKY/WX - SKY CONDITION AND SIGNIFICANT WEATHER.
      TMP - AIR TEMPERATURE.    DP   - DEWPOINT TEMPERATURE.
      RH  - RELATIVE HUMIDITY.  PRES - PRESSURE.
      HX  - HEAT INDEX.         WCI  - WIND CHILL INDEX.

*  THESE STATIONS ARE NOT NWS OR FAA STATIONS AND ARE NOT UNDER
   NWS QUALITY CONTROL.

LAZ040-048-061>063-065-066-069-190900-
SOUTHEAST LOUISIANA

CITY           SKY/WX    TMP DP  RH WIND       PRES   REMARKS
N.O. AUDUBON     N/A     59  52  78 MISG        N/A
N.O. INTL ARPT PTCLDY    60  53  77 NE18      30.11F
N.O. LAKEFRONT CLEAR     60  54  80 NE22      30.11F
N.O. DOWNTOWN* FAIR      61  48  63 N7G16     30.11F
SLIDELL        CLEAR     54  51  90 N6        30.11F
BATON ROUGE    CLEAR     56  53  90 CALM      30.13S
BOOTHVILLE     MOCLDY    60  55  83 N9G17     30.08F
BELLE CHASSE   CLEAR     58  52  80 NE9       30.09F
BOGALUSA*        N/A     55  51  88 N5        30.13F
GALLIANO*      SUNNY     61  54  78 N9G20     30.09F
NEW ROADS*     FAIR      57  55  91 NE3       30.13S
GONZALES*      FAIR      58  55  89 CALM      30.13R
HAMMOND*       CLEAR     57  52  82 NE5       30.13F
HOUMA*           N/A     58  54  84 NE7       30.11S
PORT FOURCHON* MOSUNNY   61  55  82 N10       30.11F

$$

LAZ041-044-053-054-190900-
SOUTHWEST LOUISIANA

CITY           SKY/WX    TMP DP  RH WIND       PRES   REMARKS
LAKE CHARLES   CLEAR     60  56  86 NE6       30.11F
LAFAYETTE      CLEAR     59  57  93 CALM      30.13S
PATTERSON      CLEAR     57  55  94 NE3       30.15S
SALT POINT       N/A     61  57  87 CALM      30.11S
NEW IBERIA     CLEAR     61  56  83 E7        30.13S
CHENAULT AIRPK CLEAR     58  55  88 N5        30.12F

$$

LAZ027-028-190900-
CENTRAL LOUISIANA

CITY           SKY/WX    TMP DP  RH WIND       PRES   REMARKS
FORT POLK      CLEAR     58  54  86 NE5       30.13F
ALEXANDRIA INT PTCLDY    56  51  84 CALM      30.13S
ALEXANDRIA     FOG       53  51  93 CALM      30.14S VSB 1/2

$$

LAZ001-002-190900-
NORTHWEST LOUISIANA

CITY           SKY/WX    TMP DP  RH WIND       PRES   REMARKS
SHREVEPORT     MOCLDY    54  51  90 CALM      30.13F
BARKSDALE AFB  PTCLDY    55  54  99 CALM      30.15S
DTN SHREVEPORT PTCLDY    54  52  93 CALM      30.15F

$$

LAZ014-016-190900-
NORTHEAST LOUISIANA

CITY           SKY/WX    TMP DP  RH WIND       PRES   REMARKS
MONROE         CLEAR     55  53  93 CALM      30.16S
TALLULAH       CLEAR     59  54  83 E6        30.15F

$$




USA.gov is the U.S. government's official web portal to all federal, state and local government web resources and services.